Regional Weather Roundup
Issued by NWS Midland/Odessa, TX

Skip options and go directly to product.
Home | Oldest Version | Previous Version | Current Version | All | Graphics & Text | Save Text | Print | Product List | Glossary On

Skip product version selection by date and time.   
995
ASUS44 KMAF 251210
RWRMAF
MIDLAND AREA WEATHER ROUNDUP
NATIONAL WEATHER SERVICE MIDLAND TX
700 AM CDT SUN SEP 25 2016

...IN SOUTHWEST TEXAS AND SOUTHEAST NEW MEXICO...

CITY           SKY/WX    TMP DP  RH WIND       PRES   REMARKS
ALPINE         CLOUDY    60  56  85 NW8       30.16R
ANDREWS        NOT AVBL
ARTESIA        PTCLDY    59  41  51 N10       30.11R
BIG SPRING     MOCLDY    67  63  88 E7        30.09R
CARLSBAD       MOCLDY    61  40  45 NW12      30.07R
DRYDEN           N/A     68  67  96 CALM      29.97R
FORT STOCKTON  CLOUDY    65  63  93 E6        30.02R
GUAD PASS      CLOUDY    62  33  33 CALM      30.16R
HOBBS          CLOUDY    63  63 100 NE3       30.11R
MARFA          LGT RAIN N/A N/A N/A W8        30.15R
MIDLAND AIRPK  CLOUDY    68  63  83 SE5       30.07R
MIDLAND INTL   CLOUDY    67  62  84 SE10      30.06R
ODESSA         CLOUDY    66  61  84 E9        30.07R
PECOS          CLOUDY    67  61  79 CALM      30.03R
PRESIDIO       NOT AVBL
SEMINOLE       CLOUDY    64  60  87 CALM      30.11R
SNYDER           N/A     66  65  95 CALM      30.08R
WINK           CLOUDY    67  61  81 E8        30.02R
$$
...OTHER STATIONS IN TEXAS...

CITY           SKY/WX    TMP DP  RH WIND       PRES   REMARKS
ABILENE        CLOUDY    66  65  96 E6        30.04F
AMARILLO       CLOUDY    57  56  96 NW15      30.18R FOG
AUSTIN         TSTM      77  76  96 SE7       29.96S FOG
BROWNSVILLE    PTCLDY    81  74  79 SE6       29.91R
CORPUS CHRISTI CLOUDY    78  72  81 E8        29.92S THUNDER
DALLAS FTW     CLOUDY    77  72  84 S3        30.00R
DEL RIO        CLOUDY    72  70  93 CALM      29.91R
EL PASO        CLOUDY    64  30  27 N12       30.08R
HOUSTON INT    PTCLDY    76  74  93 E3        29.98R
LUBBOCK        CLOUDY    65  64  97 S3        30.10R FOG
SAN ANGELO     LGT RAIN  68  66  93 E9        30.02R
SAN ANTONIO    CLOUDY    77  74  90 SE8       29.96S
WACO           CLOUDY    75  74  96 E3        29.99R
WICHITA FALLS  NOT AVBL
$$
...OTHER LOCATIONS IN NEW MEXICO...

CITY           SKY/WX    TMP DP  RH WIND       PRES   REMARKS
ALAMAGORDO     MOCLDY    57  32  38 NW3       30.12R
ALBUQUERQUE    PTCLDY    52  34  50 N10       30.28R
CANNON AFB     PTCLDY    53  42  67 NE16G25   30.17R
CLOVIS         PTCLDY    52  36  54 N12       30.18R
HOLLOMAN AFB   CLOUDY    63  32  31 N14       30.09R
ROSWELL        PTCLDY    57  37  47 NW5       30.13R
RUIDOSO        CLOUDY    54  28  37 NW10G16   30.29R
SANTA FE       CLEAR     46  30  53 N16       30.31R WCI  39
TRUTH OR CONSE CLEAR     55  31  39 NW8       30.17R
TUCUMCARI      CLEAR     57  36  45 NE13      30.23R
$$

USA.gov is the U.S. government's official web portal to all federal, state and local government web resources and services.